Location: Budapest
(47.4979°N, 19.0402°E)
Time: 06:00:37
(UTC+02:00)

OTV 5 (USA 277) - Pass Details

Date: 17 October 2017
Orbit: 404 x 417 km, 43.0° (Epoch: 07 September)

Event Time Altitude Azimuth Distance (km) Brightness Sun altitude
Rises 18:26:37 0° 254° (WSW) 2,352 ? -6.6°
Reaches altitude 10° 18:28:48 10° 246° (WSW) 1,490 ? -6.9°
Maximum altitude 18:31:57 38° 177° (S) 657 ? -7.5°
Drops below altitude 10° 18:35:06 10° 108° (ESE) 1,491 ? -8.0°
Enters shadow 18:35:16 - 107° (ESE) 1,556 ? -8.0°
